Location: Harwich
(41.6860°N, 70.0760°W)
Time: 03:51:17
(UTC-04:00)

Envisat - Visible Passes

Search period start: 25 April 2019 00:00
Search period end: 05 May 2019 00:00
Orbit: 764 x 766 km, 98.2° (Epoch: 24 April)

Date Brightness Start Highest point End Pass type
(mag) Time Alt. Az. Time Alt. Az. Time Alt. Az.
25 Apr 5.6 20:18:24 10° SW 20:22:14 21° W 20:26:05 10° NW visible
27 Apr 6.0 20:46:12 10° WSW 20:48:03 12° W 20:49:54 10° WNW visible
28 Apr 5.3 20:06:39 10° SSW 20:10:55 27° W 20:15:12 10° NW visible
30 Apr 5.8 20:33:45 10° SW 20:36:41 15° W 20:39:38 10° NW visible
03 May 5.6 20:21:44 10° SW 20:25:20 19° W 20:28:59 10° NW visible
